Flag for Germany Weather past 2 weeks in Wertheim, Baden-Württemberg, Germany

Now
62 °F

Overcast.


Feels Like: 62 °F
Forecast: 51 / 63 °F
Wind: 5 mph from Southwest

Location: Wuerzburg

Current Time: May 29, 2015 at 10:33:38 AM

Latest Report: May 29, 2015 at 10:00 AM


Visibility: 25 mi

Pressure: 29.95 "Hg

Humidity: 57%

Dew point: 46 °F

Location of WertheimLocation

Historic Weather in Wertheim — Graph

°F

Wertheim temperature yesterday

Maximum temperature yesterday: 69 °F (at 4:00 PM)
Minimum temperature yesterday: 39 °F (at 6:00 AM)
Average temperature yesterday: 55 °F

Past Weeks' High & Low Weather Summary

 TemperatureHumidityPressure
High73 °F (May 18, 5:00 PM)95% (May 28, 6:00 AM)30.38 "Hg (May 28, 6:00 AM)
Low39 °F (May 28, 6:00 AM)26% (May 15, 5:00 PM)29.71 "Hg (May 18, 8:00 PM)
Average57 °F59%30.07 "Hg
* Reported May 14 9:00 AM — May 29 9:00 AM, Wertheim, Weather by CustomWeather, © 2015

Note: Actual official high and low records may vary slightly from our data, if they occured in-between our weather recording intervals... More about our weather records

Advertising

Wertheim weather history for previous 24 hours

 ConditionsComfort  
Time TempWeatherWind HumidityBarometerVisibility
9:00 AM
Fri, May 29
60 °FPartly sunny.1 mph65%29.96 "Hg25 mi
8:00 AM58 °FOvercast.1 mph68%29.96 "Hg25 mi
7:00 AM50 °FPartly sunny.1 mph86%29.98 "Hg22 mi
6:00 AM51 °FOvercast.1 mph89%29.98 "Hg17 mi
5:00 AM53 °FOvercast.No wind87%29.98 "Hg17 mi
4:00 AM53 °FOvercast.1 mph87%29.98 "Hg28 mi
3:00 AM55 °FOvercast.2 mph77%29.98 "Hg28 mi
2:00 AM56 °FOvercast.2 mph76%29.99 "Hg28 mi
1:00 AM57 °FOvercast.2 mph73%29.98 "Hg28 mi
11:00 PM
Thu, May 28
60 °FSprinkles. Overcast.6 mph65%29.97 "Hg22 mi
10:00 PM61 °FOvercast.2 mph63%29.96 "Hg28 mi
9:00 PM64 °FOvercast.3 mph49%29.93 "Hg31 mi
8:00 PM66 °FOvercast.5 mph45%29.93 "Hg31 mi
7:00 PM66 °FOvercast.6 mph42%29.94 "Hg28 mi
6:00 PM69 °FPartly sunny.7 mph37%29.95 "Hg28 mi
5:00 PM67 °FPartly sunny.8 mph38%29.97 "Hg28 mi
4:00 PM69 °FPartly sunny.6 mph38%29.98 "Hg22 mi
3:00 PM67 °FScattered clouds.7 mph38%30.00 "Hg22 mi
2:00 PM66 °FScattered clouds.8 mph37%30.02 "Hg28 mi
1:00 PM64 °FScattered clouds.7 mph41%30.04 "Hg28 mi
12:00 PM61 °FOvercast.7 mph49%30.07 "Hg22 mi
11:00 AM60 °FOvercast.5 mph52%30.08 "Hg17 mi
10:00 AM54 °FOvercast.3 mph64%30.11 "Hg16 mi
Weather by CustomWeather, © 2015

See weather overviewHow to use our weather pages